Gallup, NM

10:12 AM MDT on July 21, 2017 (GMT -0600)
Gallup Municipal

Weather History for KGUP - September, 2013

Change the Weather History Date:

Friday, September 20, 2013

  Actual Average Record
Temperature  
Mean Temperature 64 °F -  
Max Temperature 82 °F 75 °F 88 °F (2014)
Min Temperature 46 °F 39 °F 30 °F (1987)
Degree Days  
Heating Degree Days 2    
Growing Degree Days 14 (Base 50)    
Moisture  
Dew Point 40 °F    
Average Humidity 42    
Maximum Humidity 74    
Minimum Humidity 19    
Precipitation  
Precipitation 0.00 in - - ()
Sea Level Pressure  
Sea Level Pressure 29.74 in    
Wind  
Wind Speed 5 mph (SE)    
Max Wind Speed 15 mph    
Max Gust Speed 22 mph    
Visibility 10 miles    
Events      
Averages and records for this station are not official NWS values.
T = Trace of Precipitation, MM = Missing Value Source: NWS Daily Summary

Daily Weather History Graph

Daily Weather History Graph

Search for Another Location

Airport or City:

Trip Planner

Search our weather history database for the weather conditions in past years. The results will help you decide how hot, cold, wet, or windy it might be!

Date:

Astronomy

Sep. 20, 2013 Rise Set
Actual Time 7:01 AM MDT 7:14 PM MDT
Civil Twilight 6:36 AM MDT 7:39 PM MDT
Nautical Twilight 6:06 AM MDT 8:09 PM MDT
Astronomical Twilight 5:36 AM MDT 8:39 PM MDT
Moon 7:55 PM MDT (9/20) 8:15 AM MDT (9/20)
Length of Visible Light 13h 03m
Length of Day
12h 12m
Full, 98% of the Moon is Illuminated
Sep 20
Full
Sep 26
Last Quarter
Oct 4
New
Oct 11
First Quarter
Oct 18
Full

Hourly Weather History & Observations

Time (MDT) Temp. Dew Point Humidity Pressure Visibility Wind Dir Wind Speed Gust Speed Precip Events Conditions
12:53 AM 55.0 °F 39.0 °F 55% 29.73 in 10.0 mi East 3.5 mph - N/A   Clear
1:53 AM 55.0 °F 39.0 °F 55% 29.72 in 10.0 mi Calm Calm - N/A   Clear
2:53 AM 54.0 °F 39.0 °F 57% 29.72 in 10.0 mi East 9.2 mph - N/A   Clear
3:53 AM 53.1 °F 39.0 °F 59% 29.73 in 10.0 mi NE 3.5 mph - N/A   Clear
4:53 AM 51.1 °F 39.0 °F 63% 29.74 in 10.0 mi East 6.9 mph - N/A   Clear
5:53 AM 50.0 °F 39.0 °F 66% 29.78 in 10.0 mi Calm Calm - N/A   Clear
6:53 AM 46.9 °F 39.0 °F 74% 29.80 in 10.0 mi Calm Calm - N/A   Clear
7:53 AM 55.0 °F 39.9 °F 57% 29.80 in 10.0 mi Calm Calm - N/A   Overcast
8:53 AM 60.1 °F 39.0 °F 46% 29.81 in 10.0 mi NE 8.1 mph - N/A   Partly Cloudy
9:53 AM 66.0 °F 42.1 °F 42% 29.81 in 10.0 mi ENE 6.9 mph - N/A   Partly Cloudy
10:53 AM 72.0 °F 44.1 °F 37% 29.76 in 10.0 mi Calm Calm - N/A   Clear
11:53 AM 75.0 °F 45.0 °F 34% 29.75 in 10.0 mi NE 3.5 mph - N/A   Clear
12:53 PM 79.0 °F 39.0 °F 24% 29.73 in 10.0 mi Variable 4.6 mph - N/A   Partly Cloudy
1:53 PM 79.0 °F 37.0 °F 22% 29.71 in 10.0 mi WSW 9.2 mph - N/A   Scattered Clouds
2:53 PM 81.0 °F 37.0 °F 21% 29.68 in 10.0 mi SSW 8.1 mph - N/A   Partly Cloudy
3:53 PM 79.0 °F 37.0 °F 22% 29.69 in 10.0 mi South 6.9 mph - N/A   Clear
4:53 PM 81.0 °F 35.1 °F 19% 29.68 in 10.0 mi WNW 6.9 mph - N/A   Partly Cloudy
5:53 PM 80.1 °F 36.0 °F 20% 29.69 in 10.0 mi West 12.7 mph 21.9 mph N/A   Partly Cloudy
6:53 PM 75.9 °F 36.0 °F 23% 29.74 in 10.0 mi WSW 5.8 mph - N/A   Clear
7:53 PM 71.1 °F 43.0 °F 36% 29.75 in 10.0 mi SSE 10.4 mph 17.3 mph N/A   Mostly Cloudy
8:53 PM 69.1 °F 44.1 °F 40% 29.74 in 10.0 mi SSE 12.7 mph 21.9 mph N/A   Clear
9:53 PM 66.0 °F 44.1 °F 45% 29.74 in 10.0 mi SSE 12.7 mph 20.7 mph N/A   Clear
10:53 PM 64.0 °F 44.1 °F 48% 29.73 in 10.0 mi SSE 15.0 mph 20.7 mph N/A   Partly Cloudy
11:53 PM 63.0 °F 43.0 °F 48% 29.71 in 10.0 mi South 8.1 mph - N/A   Clear